Jefferson, NC

3:20 AM EST on December 06, 2019 (GMT -0500)
Ashe County

Weather History for KGEV - November, 2019

Change the Weather History Date:

Tuesday, November 12, 2019

  Actual Average Record
Temperature  
Mean Temperature 32 °F -  
Max Temperature 50 °F 53 °F 69 °F (1989)
Min Temperature 14 °F 33 °F 20 °F (1973)
Degree Days  
Heating Degree Days 33    
Moisture  
Dew Point 22 °F    
Average Humidity 78    
Maximum Humidity 97    
Minimum Humidity 61    
Precipitation  
Precipitation 0.05 in - - ()
Sea Level Pressure  
Sea Level Pressure 29.99 in    
Wind  
Wind Speed 8 mph ()    
Max Wind Speed 23 mph    
Max Gust Speed 38 mph    
Visibility 8.9 miles    
Events Rain , Snow    
Averages and records for this station are not official NWS values.
T = Trace of Precipitation, MM = Missing Value Source: Averaged Metar Reports

Daily Weather History Graph

Daily Weather History Graph

Search for Another Location

Airport or City:

Astronomy

Nov. 12, 2019 Rise Set
Actual Time 6:59 AM EST 5:19 PM EST
Civil Twilight 6:32 AM EST 5:46 PM EST
Nautical Twilight 6:01 AM EST 6:17 PM EST
Astronomical Twilight 5:31 AM EST 6:48 PM EST
Moon 5:45 PM EST (11/12) 6:51 AM EST (11/12)
Length of Visible Light 11h 14m
Length of Day
10h 19m
Full, 100% of the Moon is Illuminated
Nov 12
Full
Nov 19
Last Quarter
Nov 26
New
Dec 4
First Quarter
Dec 12
Full

Hourly Weather History & Observations

Time (EST) Temp. Windchill Dew Point Humidity Pressure Visibility Wind Dir Wind Speed Gust Speed Precip Events Conditions
12:15 AM 50.5 °F - 37.4 °F 61% 29.94 in 10.0 mi West 11.5 mph 20.7 mph N/A   Overcast
12:35 AM 50.2 °F - 37.6 °F 62% 29.94 in 10.0 mi WSW 12.7 mph 21.9 mph N/A   Overcast
12:55 AM 50.2 °F - 37.9 °F 63% 29.93 in 10.0 mi West 13.8 mph 23.0 mph N/A   Mostly Cloudy
1:15 AM 50.2 °F - 37.6 °F 62% 29.93 in 10.0 mi WSW 6.9 mph - N/A   Overcast
1:35 AM 50.2 °F - 37.6 °F 62% 29.93 in 10.0 mi SSW 4.6 mph - N/A   Overcast
1:55 AM 49.5 °F - 39.4 °F 68% 29.93 in 10.0 mi West 6.9 mph - N/A Rain Rain
2:15 AM 48.0 °F - 40.1 °F 74% 29.92 in 10.0 mi SW 5.8 mph - N/A Rain Light Rain
2:55 AM 46.8 °F - 42.1 °F 84% 29.91 in 10.0 mi West 6.9 mph - 0.03 in Rain Light Rain
3:15 AM 46.4 °F 41.9 °F 42.8 °F 87% 29.89 in 10.0 mi West 9.2 mph 17.3 mph N/A   Drizzle
3:35 AM 46.2 °F 42.7 °F 43.2 °F 89% 29.88 in 10.0 mi West 6.9 mph - N/A   Drizzle
3:55 AM 46.4 °F 42.4 °F 42.8 °F 87% 29.87 in 10.0 mi WSW 8.1 mph - N/A   Light Drizzle
4:15 AM 46.4 °F 42.4 °F 42.6 °F 87% 29.87 in 10.0 mi West 8.1 mph 17.3 mph N/A   Light Drizzle
5:15 AM 40.8 °F 34.5 °F 39.9 °F 97% 29.88 in 10.0 mi NW 10.4 mph 17.3 mph 0.01 in Rain Light Rain
5:35 AM 38.3 °F 29.7 °F 37.2 °F 96% 29.89 in 10.0 mi NW 15.0 mph 19.6 mph 0.02 in Rain Light Rain
5:55 AM 36.7 °F 27.6 °F 35.8 °F 97% 29.90 in 10.0 mi WNW 15.0 mph 21.9 mph 0.02 in   Light Drizzle
6:15 AM 35.4 °F 26.0 °F 32.9 °F 91% 29.92 in 10.0 mi NW 15.0 mph 23.0 mph N/A   Drizzle
6:55 AM 32.0 °F 24.2 °F 30.4 °F 94% 29.94 in 5.0 mi NNW 9.2 mph 19.6 mph N/A Snow Light Snow
7:15 AM 31.1 °F - 29.5 °F 94% 29.95 in 3.0 mi Calm Calm - N/A Snow Light Snow
7:35 AM 29.8 °F - 28.4 °F 94% 29.96 in 1.8 mi Calm Calm - N/A Snow Light Snow
7:55 AM 29.3 °F - 27.7 °F 94% 29.97 in 1.2 mi Calm Calm - N/A Snow Light Snow
8:15 AM 28.9 °F - 26.4 °F 90% 29.97 in 2.5 mi Calm Calm - N/A Snow Light Snow
8:35 AM 28.4 °F - 25.9 °F 90% 29.98 in 5.0 mi Calm Calm - N/A Snow Light Snow
8:55 AM 28.2 °F - 25.7 °F 90% 29.98 in 3.0 mi Calm Calm - N/A Snow Light Snow
9:15 AM 28.0 °F - 24.3 °F 86% 29.98 in 10.0 mi Calm Calm - N/A   Overcast
9:35 AM 27.5 °F - 23.5 °F 85% 29.98 in 10.0 mi Calm Calm - N/A   Overcast
9:55 AM 26.8 °F - 23.0 °F 86% 29.96 in 10.0 mi Calm Calm - N/A   Overcast
10:15 AM 26.6 °F - 22.6 °F 85% 29.98 in 10.0 mi Calm Calm - N/A   Overcast
10:55 AM 25.2 °F - 21.9 °F 87% 29.97 in 10.0 mi Calm Calm - N/A   Overcast
11:15 AM 24.6 °F - 22.1 °F 90% 29.97 in 10.0 mi Calm Calm - N/A   Overcast
11:35 AM 24.8 °F - 21.7 °F 88% 29.96 in 10.0 mi Calm Calm - N/A   Overcast
11:55 AM 24.8 °F - 21.2 °F 86% 29.97 in 10.0 mi Calm Calm - N/A   Overcast
12:15 PM 24.8 °F - 20.3 °F 83% 29.96 in 10.0 mi Calm Calm - N/A   Overcast
12:35 PM 25.5 °F - 19.8 °F 79% 29.96 in 10.0 mi Calm Calm - N/A   Overcast
12:55 PM 25.0 °F - 18.7 °F 77% 29.95 in 10.0 mi Calm Calm - N/A   Overcast
1:15 PM 24.8 °F - 17.4 °F 74% 29.96 in 10.0 mi Calm Calm - N/A   Overcast
1:35 PM 25.0 °F - 17.4 °F 73% 29.96 in 10.0 mi Calm Calm - N/A   Mostly Cloudy
1:55 PM 24.3 °F - 16.9 °F 73% 29.95 in 10.0 mi Calm Calm - N/A   Mostly Cloudy
2:35 PM 23.0 °F 9.2 °F 14.0 °F 68% 29.98 in 10.0 mi NW 17.3 mph 31.1 mph N/A   Scattered Clouds
2:55 PM 23.4 °F 9.6 °F 14.5 °F 69% 29.98 in 10.0 mi NW 17.3 mph 34.5 mph N/A   Mostly Cloudy
3:15 PM 22.3 °F 7.0 °F 13.8 °F 70% 29.99 in 10.0 mi WNW 20.7 mph 33.4 mph N/A   Overcast
3:35 PM 21.2 °F 7.3 °F 13.5 °F 72% 30.00 in 10.0 mi WNW 16.1 mph 38.0 mph N/A Snow Light Snow
3:55 PM 21.2 °F 5.2 °F 12.4 °F 69% 30.00 in 10.0 mi NW 21.9 mph 29.9 mph N/A Snow Light Snow
4:15 PM 20.3 °F 5.2 °F 11.3 °F 68% 30.01 in 10.0 mi NW 18.4 mph 34.5 mph N/A   Mostly Cloudy
4:35 PM 20.1 °F 6.4 °F 11.3 °F 69% 30.02 in 10.0 mi NW 15.0 mph 26.5 mph N/A   Mostly Cloudy
4:55 PM 19.8 °F 7.1 °F 11.8 °F 71% 30.03 in 10.0 mi NW 12.7 mph 27.6 mph N/A Snow Light Snow
5:15 PM 19.4 °F 3.6 °F 11.7 °F 72% 30.02 in 10.0 mi NW 19.6 mph 29.9 mph N/A Snow Light Snow
5:55 PM 19.4 °F 4.5 °F 11.3 °F 71% 30.04 in 10.0 mi NW 17.3 mph 28.8 mph N/A Snow Light Snow
6:15 PM 19.2 °F 2.2 °F 11.1 °F 71% 30.04 in 10.0 mi NW 23.0 mph 33.4 mph N/A Snow Light Snow
6:35 PM 19.2 °F 3.4 °F 12.0 °F 74% 30.04 in 10.0 mi NW 19.6 mph 32.2 mph N/A Snow Light Snow
6:55 PM 19.2 °F 3.4 °F 12.0 °F 74% 30.05 in 10.0 mi NW 19.6 mph 34.5 mph N/A Snow Light Snow
7:15 PM 19.2 °F 2.2 °F 12.4 °F 75% 30.06 in 7.0 mi NW 23.0 mph 33.4 mph N/A Snow Light Snow
7:55 PM 18.5 °F 3.8 °F 11.8 °F 75% 30.09 in 7.0 mi NW 16.1 mph 29.9 mph N/A Snow Light Snow
8:15 PM 18.1 °F 2.0 °F 12.6 °F 79% 30.08 in 4.0 mi WNW 19.6 mph 28.8 mph N/A Snow Light Snow
8:35 PM 17.4 °F 1.5 °F 11.7 °F 78% 30.10 in 3.0 mi NW 18.4 mph 29.9 mph N/A Snow Light Snow
9:55 PM 15.8 °F 2.1 °F 7.7 °F 70% 30.12 in 10.0 mi WNW 12.7 mph 20.7 mph N/A   Clear
10:15 PM 15.4 °F 3.0 °F 7.7 °F 71% 30.12 in 10.0 mi NW 10.4 mph 20.7 mph N/A   Clear
10:35 PM 15.4 °F 1.6 °F 7.7 °F 71% 30.13 in 10.0 mi NW 12.7 mph 19.6 mph N/A   Clear
10:55 PM 15.1 °F 0.5 °F 6.8 °F 70% 30.13 in 10.0 mi WNW 13.8 mph 24.2 mph N/A   Clear
11:15 PM 14.7 °F 2.1 °F 6.8 °F 71% 30.14 in 10.0 mi NW 10.4 mph - N/A   Clear
11:35 PM 14.4 °F 1.6 °F 6.4 °F 71% 30.14 in 10.0 mi NW 10.4 mph 16.1 mph N/A   Clear
11:55 PM 14.0 °F 3.9 °F 5.9 °F 70% 30.14 in 10.0 mi NW 6.9 mph - N/A   Clear